[[{"header":{"parameterUnit":"m.s-1","parameterCategory":1,"la1":30.2991,"la2":30.254,"lo1":-89.0895,"lo2":-89.0444,"dy":0.0017,"dx":0.0017,"nx":28,"ny":28,"refTime":"2025-04-01T21:00:00:Z","depth":0,"parameterNumber":2,"parameterNumberName":"U-component_of_WINDS"},"data":[0,0,0,0,0,0,0,0,0,0,0,0,0,0,0,0,0,0,0,0,0,0,0,0,0,0,0,0,0,0,0,0,0,0,0,0,0,0,0,0,0,0,0,0,0,0,0,0,0,0,0,0,0,0,0,0,0,0,-4.4775,-4.4777,0,-4.4932,-4.4934,-4.4935,-4.4965,-4.4963,-4.4962,-4.4961,-4.5122,-4.5127,-4.5133,0,0,0,0,0,0,0,0,0,0,0,0,0,-4.4502,-4.4507,-4.4775,-4.4777,-4.4779,-4.4932,-4.4934,-4.4936,-4.4965,-4.4963,-4.4962,-4.496,-4.512,-4.5127,-4.5133,0,0,0,0,0,0,0,0,0,0,0,0,0,-4.4636,-4.4509,-4.4775,-4.4812,-4.4817,-4.4931,-4.4934,-4.4937,-4.4965,-4.4963,-4.4961,-4.496,-4.5118,-4.5126,-4.5134,-4.5223,0,0,-4.5159,-4.5163,0,0,0,0,0,0,0,0,-4.4628,-4.4646,-4.4804,-4.4809,-4.4815,-4.4927,-4.4897,-4.5033,-4.4966,-4.4909,-4.4961,-4.4959,-4.5059,-4.5072,-4.5105,-4.5231,-4.5238,-4.516,-4.5165,-4.5169,-4.5171,0,0,0,0,0,0,0,-4.4619,-4.4639,-4.4837,-4.4806,-4.4813,-4.4821,-4.4838,-4.4923,-4.4993,-4.4914,-4.4916,-4.4934,-4.5061,-4.5097,-4.5109,-4.524,-4.516,-4.5167,-4.5172,-4.5176,-4.5447,-4.545,0,0,0,0,0,0,-4.4603,-4.4631,-4.4832,-4.4842,-4.4715,-4.4828,-4.4846,-4.4893,-4.4992,-4.5005,-4.4936,-4.4935,-4.5084,-4.51,-4.5115,-4.5226,-4.5169,-4.5176,-4.5181,-4.5445,-4.5448,-4.545,0,0,0,0,0,0,-4.4597,-4.4621,-4.4826,-4.4737,-4.4764,-4.4834,-4.4886,-4.4897,-4.4933,-4.5008,-4.5021,-4.4959,-4.5083,-4.5104,-4.5196,-4.5232,-4.518,-4.5187,-4.5442,-4.5446,-4.5449,-4.5447,0,0,0,0,0,0,-4.4589,-4.4618,-4.4652,-4.4738,-4.4769,-4.4904,-4.4888,-4.4901,-4.4947,-4.4948,-4.5034,-4.5047,-4.5083,-4.5184,-4.5204,-4.5242,-4.5194,-4.5439,-4.5444,-4.5448,-4.5444,-4.545,-4.5455,0,0,0,0,0,-4.4579,-4.4645,-4.4654,-4.4678,-4.4812,-4.4905,-4.4923,-4.4964,-4.495,-4.4985,-4.5033,-4.5044,-4.5225,-4.5193,-4.5217,-4.5257,-4.5437,-4.5443,-4.5448,-4.5442,-4.5449,-4.5455,0,0,0,0,0,0,-4.4562,-4.4657,-4.4667,-4.4763,-4.4826,-4.491,-4.4955,-4.497,-4.5038,-4.5036,-4.5084,-4.5103,-4.5193,-4.5235,-4.5198,-4.5349,-4.533,-4.534,-4.5318,-4.5325,-4.533,-4.5318,-4.5201,0,0,0,0,0,-4.4569,-4.4636,-4.4716,-4.4793,-4.4824,-4.4884,-4.4926,-4.4953,-4.502,-4.5046,-4.5102,-4.5167,-4.5239,-4.5285,-4.5355,-4.5451,-4.5471,-4.5491,-4.5496,-4.55,-4.5508,-4.5562,-4.5572,-4.5467,-4.5467,-4.5467,0,0,-4.4585,-4.4645,-4.4684,-4.4791,-4.4843,-4.4912,-4.4906,-4.4979,-4.5031,-4.5058,-4.5148,-4.5192,-4.5267,-4.5362,-4.5407,-4.54,-4.5542,-4.5507,-4.551,-4.5515,-4.5569,-4.5579,-4.5587,-4.5471,-4.547,-4.547,0,0,-4.4648,-4.4701,-4.477,-4.4823,-4.4901,-4.4941,-4.4958,-4.5041,-4.507,-4.5162,-4.5184,-4.5247,-4.5369,-4.5422,-4.5465,-4.5551,-4.5563,-4.5573,-4.56,-4.5652,-4.5661,-4.5668,-4.5698,-4.5708,-4.558,-4.5581,-4.5581,0,-4.4657,-4.4761,-4.4804,-4.4877,-4.4923,-4.4951,-4.5022,-4.5071,-4.5169,-4.52,-4.5191,-4.5346,-4.5399,-4.5507,-4.5528,-4.5562,-4.5583,-4.5562,-4.5656,-4.5664,-4.5672,-4.5701,-4.5712,-4.5581,-4.5581,-4.5581,-4.5581,0,-4.4769,-4.4841,-4.4888,-4.4981,-4.5033,-4.5105,-4.5159,-4.5207,-4.523,-4.5271,-4.5364,-4.543,-4.5513,-4.5542,-4.5564,-4.5653,-4.5646,-4.5646,-4.5628,-4.5681,-4.5709,-4.5721,-4.5582,-4.5582,-4.5581,-4.5581,0,0,-4.4823,-4.494,-4.4957,-4.5,-4.5089,-4.5146,-4.522,-4.5302,-4.5341,-4.5409,-4.5471,-4.5575,-4.5576,-4.5625,-4.5654,-4.5701,-4.5764,-4.5695,-4.5698,-4.5704,-4.5866,-4.5864,-4.5876,-4.5774,-4.5776,-4.5778,-4.5859,0,-4.4896,-4.5027,-4.5068,-4.5178,-4.5245,-4.5274,-4.5338,-4.54,-4.5441,-4.5505,-4.5551,-4.5623,-4.5619,-4.5649,-4.5696,-4.5746,-4.5797,-4.5741,-4.5832,-4.5835,-4.581,-4.5891,-4.589,-4.5963,-4.5871,-4.5873,-4.5874,0,-4.4998,-4.5066,-4.5182,-4.5264,-4.5294,-4.535,-4.5429,-4.549,-4.5562,-4.5589,-4.5644,-4.567,-4.5749,-4.5728,-4.5837,-4.5798,-4.5839,-4.5869,-4.5873,-4.5881,-4.5856,-4.5901,-4.5988,-4.5998,-4.5892,-4.589,-4.5889,0,-4.5025,-4.5146,-4.5231,-4.5267,-4.5365,-4.5404,-4.5447,-4.5517,-4.5564,-4.5634,-4.5665,-4.5743,-4.5785,-4.5846,-4.5892,-4.5873,-4.5997,-4.598,-4.6022,-4.602,-4.6045,-4.6042,-4.6138,-4.6073,-4.6073,-4.6073,-4.6073,0,-4.5101,-4.517,-4.5244,-4.5296,-4.5375,-4.5424,-4.5501,-4.5546,-4.5608,-4.567,-4.57,-4.5758,-4.5817,-4.5882,-4.592,-4.6004,-4.6024,-4.6048,-4.6056,-4.6044,-4.6041,-4.607,-4.6065,-4.6076,-4.6075,-4.6075,-4.6074,0,-4.5143,-4.5195,-4.529,-4.5375,-4.5398,-4.5453,-4.5526,-4.5578,-4.5621,-4.5699,-4.5721,-4.5788,-4.5867,-4.5921,-4.6022,-4.6047,-4.6138,-4.6147,-4.6114,-4.6118,-4.6155,-4.6151,-4.6272,-4.629,-4.6214,-4.6215,-4.6215,0,-4.5187,-4.5241,-4.5332,-4.5376,-4.5419,-4.5488,-4.5536,-4.5587,-4.5636,-4.5723,-4.5765,-4.5846,-4.5913,-4.6038,-4.6096,-4.6174,-4.6184,-4.6221,-4.6196,-4.6182,-4.6184,-4.6179,-4.6185,-4.6225,-4.6225,-4.6226,-4.6226,0,-4.526,-4.5283,-4.5351,-4.5429,-4.5485,-4.5549,-4.5613,-4.5647,-4.5709,-4.5763,-4.5844,-4.5896,-4.6,-4.608,-4.6163,-4.6208,-4.6228,-4.6234,-4.6247,-4.6234,-4.6212,-4.6224,-4.6123,-4.623,-4.623,-4.623,-4.6229,-4.6229,-4.5304,-4.5353,-4.5425,-4.55,-4.5554,-4.5613,-4.5666,-4.5716,-4.5784,-4.5872,-4.5898,-4.5983,-4.6055,-4.6169,-4.6216,-4.6283,-4.6279,-4.6299,-4.6304,-4.6307,-4.6307,-4.6203,-4.6298,-4.6298,-4.6298,-4.6298,-4.6298,0,-4.5377,-4.5425,-4.5494,-4.5582,-4.5641,-4.5655,-4.5727,-4.5775,-4.5849,-4.5914,-4.598,-4.6074,-4.6152,-4.6217,-4.6298,-4.634,-4.6351,-4.6359,-4.6356,-4.6366,-4.6306,-4.6285,-4.6349,-4.6349,-4.6349,-4.6349,-4.6349,-4.6349,-4.5422,-4.5506,-4.5539,-4.565,-4.5699,-4.578,-4.582,-4.5876,-4.5928,-4.6031,-4.6096,-4.6138,-4.6204,-4.629,-4.6363,-4.638,-4.6408,-4.6415,-4.6434,-4.6376,-4.637,-4.6364,-4.6345,-4.6421,-4.6421,-4.6488,-4.6489,-4.6489]},{"header":{"parameterUnit":"m.s-1","parameterCategory":1,"la1":30.2991,"la2":30.254,"lo1":-89.0895,"lo2":-89.0444,"dy":0.0017,"dx":0.0017,"nx":28,"ny":28,"refTime":"2025-04-01T21:00:00:Z","depth":0,"parameterNumber":3,"parameterNumberName":"V-component_of_WINDS"},"data":[0,0,0,0,0,0,0,0,0,0,0,0,0,0,0,0,0,0,0,0,0,0,0,0,0,0,0,0,0,0,0,0,0,0,0,0,0,0,0,0,0,0,0,0,0,0,0,0,0,0,0,0,0,0,0,0,0,0,6.3084,6.3085,0,6.3179,6.318,6.3181,6.3151,6.3149,6.3147,6.3146,6.3239,6.3243,6.3248,0,0,0,0,0,0,0,0,0,0,0,0,0,6.2873,6.2877,6.3084,6.3085,6.3086,6.3179,6.318,6.3182,6.3152,6.3149,6.3147,6.3145,6.3238,6.3243,6.3248,0,0,0,0,0,0,0,0,0,0,0,0,0,6.2966,6.2879,6.3084,6.3083,6.3084,6.3179,6.318,6.3182,6.3152,6.3149,6.3146,6.3143,6.3236,6.3242,6.3249,6.335,0,0,6.3269,6.3272,0,0,0,0,0,0,0,0,6.2961,6.2974,6.3082,6.3083,6.3084,6.315,6.314,6.3238,6.3153,6.3126,6.3145,6.3142,6.3212,6.322,6.3244,6.3354,6.3358,6.3269,6.3273,6.3276,6.3278,0,0,0,0,0,0,0,6.2955,6.297,6.3121,6.3083,6.3085,6.3077,6.3086,6.3159,6.3184,6.3128,6.3126,6.3138,6.3212,6.3238,6.3246,6.3359,6.3269,6.3275,6.3279,6.3282,6.3558,6.3561,0,0,0,0,0,0,6.2948,6.2964,6.3118,6.3124,6.3014,6.3083,6.3094,6.3132,6.3184,6.3189,6.3141,6.3136,6.3229,6.3239,6.325,6.3372,6.3276,6.3282,6.3286,6.3554,6.3559,6.3562,0,0,0,0,0,0,6.2943,6.2962,6.3115,6.3044,6.3063,6.309,6.3133,6.3136,6.3162,6.3193,6.3197,6.3163,6.3227,6.324,6.3326,6.3375,6.3285,6.3291,6.355,6.3556,6.356,6.3618,0,0,0,0,0,0,6.2937,6.296,6.3,6.3045,6.3067,6.319,6.3136,6.314,6.3174,6.3169,6.3215,6.322,6.3225,6.3316,6.3332,6.3383,6.3296,6.3546,6.3553,6.3559,6.3612,6.3625,6.3635,0,0,0,0,0,6.293,6.3011,6.3002,6.302,6.3116,6.3193,6.3205,6.3211,6.3178,6.3217,6.3238,6.3219,6.3367,6.3325,6.3343,6.3396,6.3543,6.3551,6.3558,6.3607,6.3622,6.3635,0,0,0,0,0,0,6.2968,6.3017,6.3007,6.3105,6.3146,6.3188,6.3238,6.3227,6.3276,6.3269,6.3273,6.3283,6.3371,6.3392,6.3344,6.3497,6.345,6.3462,6.3481,6.3496,6.3507,6.3501,6.3302,0,0,0,0,0,6.2989,6.3048,6.3086,6.3169,6.319,6.3211,6.3244,6.3245,6.3286,6.3303,6.3329,6.3369,6.3424,6.3461,6.3514,6.3614,6.3625,6.366,6.3672,6.3681,6.3691,6.3748,6.3764,6.3587,6.3587,6.3587,0,0,6.303,6.3064,6.3101,6.3178,6.3209,6.327,6.3225,6.329,6.3335,6.3312,6.3395,6.3416,6.346,6.3554,6.3597,6.3574,6.3742,6.3691,6.3698,6.3703,6.3757,6.3774,6.3789,6.3593,6.3592,6.3591,0,0,6.3138,6.3169,6.3242,6.3275,6.3324,6.3337,6.3355,6.34,6.3413,6.3497,6.3481,6.3534,6.3629,6.3662,6.3692,6.3813,6.3798,6.383,6.3892,6.3947,6.3961,6.3973,6.4018,6.4033,6.384,6.384,6.384,0,6.3183,6.3275,6.3281,6.3349,6.3384,6.3367,6.3441,6.3472,6.3535,6.3559,6.3533,6.3654,6.3682,6.3785,6.3815,6.3839,6.3859,6.3825,6.3958,6.3971,6.3982,6.4025,6.4042,6.3844,6.3844,6.3843,6.3843,0,6.3329,6.3394,6.3447,6.351,6.3551,6.3621,6.3637,6.3677,6.3675,6.3691,6.3776,6.3811,6.3871,6.3895,6.3892,6.3997,6.3982,6.3957,6.391,6.4003,6.4043,6.4059,6.3849,6.3848,6.3847,6.3846,0,0,6.3463,6.3531,6.355,6.358,6.3633,6.3682,6.3752,6.3813,6.3847,6.3891,6.395,6.4032,6.401,6.4044,6.4045,6.4093,6.4189,6.4062,6.4063,6.4085,6.4308,6.4327,6.4346,6.4179,6.4182,6.4184,6.4305,0,6.3577,6.3702,6.3709,6.3822,6.3882,6.3867,6.3928,6.3967,6.3984,6.4037,6.4054,6.4114,6.4079,6.41,6.4146,6.4167,6.4234,6.4158,6.4233,6.4236,6.4224,6.4367,6.4387,6.4499,6.432,6.4323,6.4325,0,6.3725,6.3776,6.3896,6.3942,6.3967,6.4022,6.408,6.413,6.4174,6.4182,6.4221,6.4216,6.4287,6.4237,6.4335,6.4284,6.4315,6.433,6.4335,6.4343,6.4287,6.4379,6.4534,6.4552,6.4349,6.4347,6.4345,0,6.3813,6.3911,6.3996,6.4021,6.4077,6.4116,6.4141,6.4182,6.4218,6.4268,6.4291,6.4348,6.4379,6.4422,6.4432,6.4394,6.4531,6.4481,6.454,6.454,6.457,6.4569,6.4734,6.4589,6.4588,6.4588,6.4588,0,6.3939,6.4013,6.4037,6.4089,6.4171,6.4179,6.426,6.4282,6.4319,6.4375,6.4364,6.4417,6.4426,6.448,6.4488,6.4569,6.4583,6.4592,6.4593,6.4594,6.4593,6.4615,6.4608,6.4592,6.4591,6.4591,6.459,0,6.4052,6.407,6.4162,6.4208,6.4221,6.428,6.4319,6.4369,6.4385,6.4456,6.4473,6.4498,6.4561,6.4575,6.465,6.4655,6.4752,6.4745,6.4738,6.4738,6.4796,6.4791,6.4982,6.5008,6.4845,6.4846,6.4848,0,6.4132,6.4189,6.4242,6.4279,6.4306,6.4366,6.4404,6.4414,6.4454,6.4509,6.4552,6.4615,6.4666,6.4767,6.4792,6.4849,6.4844,6.4907,6.4852,6.4852,6.4847,6.4844,6.485,6.4918,6.4919,6.4921,6.4922,0,6.4272,6.4279,6.4335,6.4395,6.4441,6.4488,6.4532,6.4563,6.4579,6.4624,6.469,6.4729,6.4807,6.4869,6.4927,6.4951,6.494,6.4939,6.4956,6.4958,6.4952,6.4957,6.4768,6.4935,6.4934,6.4933,6.4932,6.4931,6.4372,6.4423,6.4469,6.4531,6.4566,6.4609,6.4659,6.4682,6.4737,6.4802,6.4804,6.4876,6.4919,6.4996,6.5024,6.508,6.506,6.5084,6.509,6.5097,6.5103,6.4942,6.509,6.5089,6.5089,6.5089,6.5089,0,6.4514,6.4543,6.46,6.4665,6.4714,6.47,6.4749,6.4791,6.4855,6.4897,6.4948,6.5024,6.5085,6.5114,6.5174,6.5213,6.521,6.5229,6.5227,6.5233,6.5116,6.5096,6.5231,6.5231,6.5231,6.5231,6.5231,6.5231,6.4593,6.4679,6.4691,6.4794,6.4822,6.4894,6.4923,6.4962,6.4996,6.5082,6.5133,6.5153,6.519,6.5253,6.5308,6.5315,6.5338,6.536,6.5364,6.5255,6.5241,6.5227,6.5208,6.5365,6.5365,6.5477,6.5478,6.5478]}]]